When you browse on this site, cookies collect data to enhance your experience and personalize the content and advertising you see.
Visit our Privacy Policy to learn more. By continuing to use the site, you agree to this use of cookies and data.
  • In Switzerland
  • List of Countries
  • For 7 days
  • Water Temperature
  • Satellite Maps
  • Weather Map
  • Weather Widgets
  • user-avatar
    Login

    Hourly Weather Escaldes-Engordany

    Today, 22 May, Wednesday

    Time Temperature Precipitation Wind Pressure Humidity
    00:00 +6°C° 0 mm 1 mps 638 mmHg 93%
    01:00 +5°C° 0 mm 1 mps 638 mmHg 93%
    02:00 +5°C° 0 mm 1 mps 637 mmHg 93%
    03:00 +5°C° 0 mm 1 mps 637 mmHg 93%
    04:00 +6°C° 0 mm 1 mps 638 mmHg 90%
    05:00 +6°C° 0 mm 1 mps 638 mmHg 87%
    06:00 +7°C° 0 mm 1 mps 638 mmHg 85%
    07:00 +10°C° 0 mm 1 mps 639 mmHg 72%
    08:00 +12°C° 0 mm 1 mps 640 mmHg 58%
    09:00 +15°C° 0 mm 1 mps 641 mmHg 45%
    10:00 +16°C° 0 mm 1 mps 642 mmHg 43%
    11:00 +18°C° 0 mm 1 mps 642 mmHg 40%
    12:00 +19°C° 0 mm 1 mps 642 mmHg 38%
    13:00 +18°C° 0.1 mm 1 mps 642 mmHg 44%
    14:00 +16°C° 0.1 mm 1 mps 641 mmHg 50%
    15:00 +14°C° 0.1 mm 1 mps 640 mmHg 55%
    16:00 +14°C° 0.1 mm 1 mps 640 mmHg 59%
    17:00 +12°C° 0.1 mm 0 mps 640 mmHg 63%
    18:00 +12°C° 0.1 mm 0 mps 640 mmHg 67%
    19:00 +11°C° 0 mm 1 mps 639 mmHg 74%
    20:00 +10°C° 0 mm 1 mps 639 mmHg 80%
    21:00 +8°C° 0 mm 1 mps 639 mmHg 87%
    22:00 +8°C° 0 mm 1 mps 639 mmHg 87%
    23:00 +7°C° 0 mm 1 mps 639 mmHg 87%

    Tomorrow, 23 May, Thursday

    Time Temperature Precipitation Wind Pressure Humidity
    00:00 +7°C° 0 mm 1 mps 639 mmHg 87%
    01:00 +7°C° 0 mm 1 mps 638 mmHg 86%
    02:00 +7°C° 0 mm 1 mps 638 mmHg 84%
    03:00 +7°C° 0 mm 1 mps 638 mmHg 83%
    04:00 +8°C° 0 mm 1 mps 638 mmHg 79%
    05:00 +9°C° 0 mm 1 mps 639 mmHg 75%
    06:00 +10°C° 0 mm 1 mps 639 mmHg 71%
    07:00 +13°C° 0 mm 1 mps 640 mmHg 62%
    08:00 +15°C° 0 mm 1 mps 641 mmHg 53%
    09:00 +18°C° 0 mm 1 mps 642 mmHg 44%
    10:00 +20°C° 0 mm 1 mps 642 mmHg 41%
    11:00 +21°C° 0 mm 1 mps 643 mmHg 38%
    12:00 +22°C° 0 mm 1 mps 643 mmHg 36%
    13:00 +20°C° 0.1 mm 1 mps 642 mmHg 41%
    14:00 +19°C° 0.1 mm 1 mps 641 mmHg 47%
    15:00 +18°C° 0.1 mm 1 mps 640 mmHg 53%
    16:00 +16°C° 0.2 mm 1 mps 640 mmHg 59%
    17:00 +15°C° 0.2 mm 1 mps 640 mmHg 65%
    18:00 +14°C° 0.2 mm 1 mps 639 mmHg 71%
    19:00 +13°C° 0.2 mm 1 mps 639 mmHg 76%
    20:00 +12°C° 0.2 mm 1 mps 639 mmHg 81%
    21:00 +11°C° 0.2 mm 1 mps 639 mmHg 86%
    22:00 +10°C° 0.1 mm 1 mps 639 mmHg 87%
    23:00 +10°C° 0.1 mm 1 mps 639 mmHg 87%

    Day after tomorrow, 24 May, Friday

    Time Temperature Precipitation Wind Pressure Humidity
    00:00 +9°C° 0.1 mm 0 mps 638 mmHg 87%
    01:00 +9°C° 0.2 mm 0 mps 638 mmHg 88%
    02:00 +9°C° 0.2 mm 0 mps 638 mmHg 88%
    03:00 +8°C° 0.2 mm 0 mps 638 mmHg 89%
    04:00 +9°C° 0.3 mm 0 mps 638 mmHg 88%
    05:00 +9°C° 0.3 mm 0 mps 638 mmHg 88%
    06:00 +9°C° 0.3 mm 0 mps 638 mmHg 87%
    07:00 +11°C° 0.9 mm 1 mps 638 mmHg 86%
    08:00 +11°C° 0.9 mm 1 mps 638 mmHg 85%
    09:00 +11°C° 0.9 mm 1 mps 639 mmHg 84%
    10:00 +11°C° 2 mm 1 mps 638 mmHg 88%
    11:00 +10°C° 2 mm 1 mps 638 mmHg 91%
    12:00 +10°C° 2 mm 1 mps 638 mmHg 95%
    13:00 +10°C° 1.9 mm 1 mps 638 mmHg 93%
    14:00 +10°C° 1.9 mm 1 mps 638 mmHg 91%
    15:00 +10°C° 1.9 mm 1 mps 638 mmHg 90%
    16:00 +10°C° 0.9 mm 1 mps 637 mmHg 90%
    17:00 +10°C° 0.9 mm 1 mps 637 mmHg 90%
    18:00 +10°C° 0.9 mm 1 mps 637 mmHg 90%
    19:00 +9°C° 0.9 mm 1 mps 637 mmHg 92%
    20:00 +8°C° 0.9 mm 2 mps 637 mmHg 93%
    21:00 +7°C° 0.9 mm 2 mps 637 mmHg 95%
    22:00 +7°C° 1.1 mm 2 mps 637 mmHg 94%
    23:00 +9°C° 1.1 mm 1 mps 637 mmHg 94%

    25 May, Saturday

    Time Temperature Precipitation Wind Pressure Humidity
    00:00 +9°C° 1.1 mm 1 mps 637 mmHg 94%
    01:00 +9°C° 0.9 mm 1 mps 637 mmHg 94%
    02:00 +9°C° 0.9 mm 1 mps 637 mmHg 95%
    03:00 +9°C° 0.9 mm 1 mps 637 mmHg 95%
    04:00 +9°C° 0.5 mm 1 mps 637 mmHg 95%
    05:00 +9°C° 0.5 mm 1 mps 637 mmHg 95%
    06:00 +9°C° 0.5 mm 1 mps 637 mmHg 95%
    07:00 +10°C° 0.6 mm 1 mps 638 mmHg 93%
    08:00 +10°C° 0.6 mm 1 mps 638 mmHg 91%
    09:00 +11°C° 0.6 mm 1 mps 638 mmHg 89%
    10:00 +10°C° 0.7 mm 2 mps 638 mmHg 88%
    11:00 +10°C° 0.7 mm 2 mps 639 mmHg 87%
    12:00 +10°C° 0.7 mm 2 mps 639 mmHg 85%
    13:00 +10°C° 0.9 mm 2 mps 638 mmHg 87%
    14:00 +10°C° 0.9 mm 2 mps 638 mmHg 88%
    15:00 +9°C° 0.9 mm 2 mps 638 mmHg 90%
    16:00 +9°C° 0.2 mm 2 mps 638 mmHg 89%
    17:00 +9°C° 0.2 mm 2 mps 638 mmHg 89%
    18:00 +9°C° 0.2 mm 2 mps 639 mmHg 88%
    19:00 +8°C° 0 mm 2 mps 639 mmHg 90%
    20:00 +8°C° 0 mm 2 mps 639 mmHg 91%
    21:00 +7°C° 0 mm 2 mps 639 mmHg 93%
    22:00 +7°C° 0.1 mm 2 mps 639 mmHg 93%
    23:00 +7°C° 0.1 mm 2 mps 639 mmHg 93%

    26 May, Sunday

    Time Temperature Precipitation Wind Pressure Humidity
    00:00 +7°C° 0.1 mm 2 mps 639 mmHg 93%
    01:00 +7°C° 0 mm 2 mps 639 mmHg 93%
    02:00 +7°C° 0 mm 2 mps 639 mmHg 93%
    03:00 +7°C° 0 mm 3 mps 639 mmHg 94%
    04:00 +8°C° 0 mm 3 mps 639 mmHg 92%
    05:00 +8°C° 0 mm 3 mps 639 mmHg 91%
    06:00 +8°C° 0 mm 3 mps 639 mmHg 89%
    07:00 +9°C° 0 mm 3 mps 640 mmHg 83%
    08:00 +10°C° 0 mm 3 mps 640 mmHg 78%
    09:00 +12°C° 0 mm 3 mps 641 mmHg 72%
    10:00 +12°C° 0 mm 3 mps 641 mmHg 69%
    11:00 +13°C° 0 mm 3 mps 641 mmHg 65%
    12:00 +14°C° 0 mm 3 mps 641 mmHg 62%
    13:00 +14°C° 0 mm 3 mps 640 mmHg 60%
    14:00 +14°C° 0 mm 3 mps 640 mmHg 59%
    15:00 +16°C° 0 mm 3 mps 640 mmHg 58%
    16:00 +14°C° 0 mm 3 mps 640 mmHg 61%
    17:00 +13°C° 0 mm 3 mps 639 mmHg 64%
    18:00 +13°C° 0 mm 2 mps 639 mmHg 67%
    19:00 +10°C° 0 mm 2 mps 639 mmHg 74%
    20:00 +9°C° 0 mm 2 mps 638 mmHg 82%
    21:00 +7°C° 0 mm 2 mps 638 mmHg 90%
    22:00 +7°C° 0 mm 2 mps 638 mmHg 90%
    23:00 +8°C° 0 mm 3 mps 638 mmHg 91%

    27 May, Monday

    Time Temperature Precipitation Wind Pressure Humidity
    00:00 +8°C° 0 mm 3 mps 638 mmHg 91%
    01:00 +8°C° 0.1 mm 3 mps 638 mmHg 91%
    02:00 +8°C° 0.1 mm 3 mps 638 mmHg 91%
    03:00 +8°C° 0.1 mm 3 mps 638 mmHg 92%
    04:00 +8°C° 0 mm 3 mps 638 mmHg 90%
    05:00 +8°C° 0 mm 3 mps 638 mmHg 89%
    06:00 +9°C° 0 mm 3 mps 638 mmHg 88%
    07:00 +10°C° 0 mm 2 mps 638 mmHg 79%
    08:00 +13°C° 0 mm 2 mps 639 mmHg 71%
    09:00 +15°C° 0 mm 2 mps 640 mmHg 62%
    10:00 +16°C° 0 mm 2 mps 640 mmHg 59%
    11:00 +16°C° 0 mm 2 mps 640 mmHg 56%
    12:00 +17°C° 0 mm 2 mps 640 mmHg 53%
    13:00 +17°C° 0.2 mm 2 mps 639 mmHg 54%
    14:00 +17°C° 0.2 mm 2 mps 639 mmHg 55%
    15:00 +17°C° 0.2 mm 2 mps 639 mmHg 57%
    16:00 +16°C° 0.2 mm 2 mps 638 mmHg 63%
    17:00 +15°C° 0.2 mm 2 mps 638 mmHg 70%
    18:00 +13°C° 0.2 mm 2 mps 637 mmHg 76%
    19:00 +12°C° 0 mm 2 mps 637 mmHg 82%
    20:00 +9°C° 0 mm 2 mps 636 mmHg 87%
    21:00 +8°C° 0 mm 2 mps 636 mmHg 93%
    22:00 +7°C° 0 mm 2 mps 636 mmHg 91%
    23:00 +6°C° 0 mm 2 mps 635 mmHg 89%
    Show more